User: anonymous   Login
Location: Newark
(48.6461°N, 4.3644°W)
Time: 12:51:19
(UTC+00:00)
Language:

STARLINK-1019 - Orbit

View from above orbital plane
View from above orbital plane
View from above satellite
View from above satellite

Ground track
Ground track

The orbit data is extracted from the following two-line orbital elements,

1 44724U 19074M   20057.25002315 -.00036589  00000-0 -70251-3 0  9995
2 44724  53.0074   1.3681 0001315  52.9570  88.7784 15.47217215 16788
Epoch (UTC): 26 February 2020 06:00:02
Eccentricity: 0.0001315
inclination: 53.0074°
perigee height: 424 km
apogee height: 426 km
right ascension of ascending node: 1.3681°
argument of perigee: 52.9570°
revolutions per day: 15.47217215
mean anomaly at epoch: 88.7784°
orbit number at epoch: 1678

The dashed part of the orbit path shows where the satellite is in the earth's shadow,  

DLR